K7ADX Weather Reports


time (UTC)temp
C
wind
direction
speed
KPH
gust
KPH
rain 1hr
cm
rain 24hr
cm
rain mn
cm
humidity
%
barometer
mb
20260506045027 19 0 0.0 4.8 0.00 0.69 0.43 39 1014.0
20260506044542 19 285 1.6 8.0 0.00 0.69 0.43 39 1014.0
20260506044028 19 284 3.2 8.0 0.00 0.69 0.43 38 1014.0
20260506043528 19 288 3.2 6.4 0.00 0.69 0.43 38 1013.9
20260506043046 19 267 1.6 6.4 0.00 0.69 0.43 38 1013.9
20260506042528 19 259 3.2 6.4 0.00 0.69 0.43 39 1013.8
20260506042027 19 246 3.2 6.4 0.00 0.69 0.43 38 1013.7
20260506041542 19 307 0.0 6.4 0.00 0.69 0.43 39 1013.6
20260506041027 20 267 1.6 6.4 0.00 0.69 0.43 39 1013.6
20260506040529 20 293 1.6 8.0 0.00 0.69 0.43 39 1013.5
20260506040044 20 295 1.6 9.7 0.00 0.69 0.43 38 1013.5
20260506035528 20 294 1.6 9.7 0.00 0.76 0.43 38 1013.4
20260506035029 20 293 4.8 9.7 0.00 0.76 0.43 39 1013.2
20260506034541 20 288 1.6 12.9 0.00 0.76 0.43 40 1013.1
20260506034024 20 292 1.6 12.9 0.00 0.76 0.43 40 1012.9
20260506033528 20 314 1.6 12.9 0.00 0.76 0.43 42 1013.0
20260506033040 20 253 4.8 11.3 0.00 0.76 0.43 42 1012.9
20260506032528 20 351 3.2 12.9 0.00 0.76 0.43 43 1012.8
20260506032031 20 290 1.6 12.9 0.00 0.76 0.43 44 1012.6
20260506031550 20 229 4.8 11.3 0.00 0.76 0.43 43 1012.5
20260506031028 20 207 3.2 11.3 0.00 0.76 0.43 42 1012.3
20260506030527 20 316 4.8 11.3 0.00 0.76 0.43 42 1012.1
20260506030043 20 237 6.4 12.9 0.00 0.76 0.43 40 1012.0
20260506025527 20 251 4.8 14.5 0.00 0.79 0.43 39 1011.9
20260506025030 20 288 3.2 14.5 0.00 0.79 0.43 38 1011.8
20260506024547 20 154 3.2 11.3 0.00 0.79 0.43 38 1011.8
20260506024028 21 237 3.2 11.3 0.00 0.79 0.43 38 1011.7
20260506023528 21 255 3.2 11.3 0.00 0.79 0.43 37 1011.6
20260506023041 21 108 3.2 11.3 0.00 0.79 0.43 37 1011.6
20260506022528 21 231 4.8 17.7 0.00 0.79 0.43 37 1011.5
20260506022027 21 235 6.4 17.7 0.00 0.79 0.43 37 1011.4
20260506021544 21 229 4.8 16.1 0.00 0.79 0.43 37 1011.3
20260506021028 21 233 4.8 16.1 0.00 0.79 0.43 36 1011.2
20260506020530 21 239 4.8 14.5 0.00 0.79 0.43 36 1011.1
20260506020040 21 27 4.8 14.5 0.00 0.79 0.43 36 1011.0
20260506015532 21 242 6.4 14.5 0.00 0.81 0.43 35 1011.0
20260506015028 21 277 4.8 17.7 0.00 0.81 0.43 35 1010.9
20260506014543 21 283 6.4 17.7 0.00 0.81 0.43 34 1011.0
20260506014028 22 230 4.8 12.9 0.00 0.81 0.43 33 1011.0
20260506013529 22 236 4.8 12.9 0.00 0.81 0.43 32 1010.9
20260506013041 22 230 3.2 14.5 0.00 0.81 0.43 32 1010.9
20260506012527 22 210 4.8 20.9 0.00 0.81 0.43 31 1010.8
20260506012030 22 218 4.8 20.9 0.00 0.81 0.43 30 1010.9
20260506011544 23 226 4.8 17.7 0.00 0.81 0.43 30 1010.9
20260506011031 23 214 6.4 19.3 0.00 0.81 0.43 29 1010.9
20260506010528 23 314 6.4 19.3 0.00 0.81 0.43 30 1010.9
20260506010046 23 210 6.4 16.1 0.00 0.81 0.43 30 1010.8
20260506005527 23 255 6.4 19.3 0.00 0.84 0.43 30 1010.8
20260506005027 23 293 6.4 19.3 0.00 0.84 0.43 30 1010.8
20260506004540 23 254 9.7 20.9 0.00 0.84 0.43 31 1010.7
20260506004028 23 312 6.4 22.5 0.00 0.84 0.43 30 1010.7
20260506003529 23 232 11.3 22.5 0.00 0.84 0.43 30 1010.6
20260506003041 23 11 8.0 19.3 0.00 0.84 0.43 31 1010.6
20260506002527 23 291 9.7 17.7 0.00 0.84 0.43 30 1010.6
20260506002027 23 272 6.4 16.1 0.00 0.84 0.43 30 1010.3
20260506001540 24 312 8.0 16.1 0.00 0.84 0.43 30 1010.3
20260506001025 24 258 6.4 20.9 0.00 0.84 0.43 30 1010.3
20260506000528 24 248 9.7 20.9 0.00 0.84 0.43 30 1010.2
20260506000044 24 234 9.7 19.3 0.00 0.84 0.43 29 1010.3
20260505235530 24 127 6.4 22.5 0.00 0.84 0.43 29 1010.2
20260505235030 24 274 8.0 22.5 0.00 0.84 0.43 29 1010.2
20260505234548 24 255 9.7 22.5 0.00 0.84 0.43 28 1010.0
20260505234031 24 254 9.7 17.7 0.00 0.84 0.43 30 1010.1
20260505233527 25 319 6.4 17.7 0.00 0.84 0.43 29 1010.0
20260505233042 25 239 6.4 22.5 0.00 0.84 0.43 30 1010.0
20260505232527 24 233 9.7 22.5 0.00 0.84 0.43 30 1009.9
20260505232027 24 134 9.7 17.7 0.00 0.84 0.43 30 1010.0
20260505231551 24 13 8.0 17.7 0.00 0.84 0.43 28 1010.0
20260505231027 25 210 8.0 17.7 0.00 0.84 0.43 28 1009.9
20260505230527 24 214 4.8 17.7 0.00 0.84 0.43 31 1009.8
20260505230052 24 231 4.8 17.7 0.00 0.84 0.43 30 1010.0
20260505225528 25 278 4.8 17.7 0.00 0.84 0.43 31 1010.1
20260505225030 25 312 6.4 17.7 0.00 0.84 0.43 32 1010.1
20260505224544 25 230 8.0 17.7 0.00 0.84 0.43 30 1010.1
20260505224027 25 221 6.4 19.3 0.00 0.84 0.43 31 1010.1
20260505223529 25 238 4.8 19.3 0.00 0.84 0.43 31 1010.1
20260505223041 24 317 6.4 22.5 0.00 0.84 0.43 31 1010.3
20260505222527 24 274 4.8 24.1 0.00 0.84 0.43 31 1010.3
20260505222025 24 25 11.3 24.1 0.00 0.84 0.43 31 1010.3
20260505221542 24 287 6.4 17.7 0.00 0.84 0.43 32 1010.5
20260505221029 24 30 8.0 17.7 0.00 0.84 0.43 32 1010.6
20260505220525 24 231 8.0 17.7 0.00 0.84 0.43 33 1010.6
20260505220047 23 330 4.8 20.9 0.00 0.84 0.43 33 1010.6
20260505215529 23 315 6.4 20.9 0.00 0.84 0.43 32 1010.7
20260505215025 24 267 8.0 17.7 0.00 0.84 0.43 32 1010.8
20260505214543 24 207 6.4 17.7 0.00 0.84 0.43 33 1010.7
20260505214028 24 247 6.4 16.1 0.00 0.84 0.43 33 1010.8
20260505213527 23 305 8.0 19.3 0.00 0.84 0.43 34 1010.8
20260505213052 23 320 6.4 20.9 0.00 0.84 0.43 34 1010.9
20260505212526 23 275 4.8 20.9 0.00 0.84 0.43 34 1010.9
20260505212028 24 288 6.4 17.7 0.00 0.84 0.43 33 1011.0
20260505211544 24 236 6.4 16.1 0.00 0.84 0.43 33 1011.2
20260505211028 24 208 3.2 9.7 0.00 0.84 0.43 34 1011.0
20260505210527 23 6 0.0 9.7 0.00 0.84 0.43 41 1011.1
20260505210046 23 179 4.8 9.7 0.00 0.84 0.43 41 1011.4
20260505205528 23 276 1.6 11.3 0.00 0.84 0.43 44 1011.4
20260505205028 23 243 4.8 11.3 0.00 0.84 0.43 44 1011.5
20260505204548 23 288 4.8 12.9 0.00 0.84 0.43 44 1011.4
20260505204025 22 242 3.2 12.9 0.00 0.84 0.43 46 1011.5
20260505203526 22 289 4.8 16.1 0.00 0.84 0.43 45 1011.5
20260505203045 23 236 6.4 16.1 0.00 0.84 0.43 46 1011.5
20260505202525 23 276 4.8 12.9 0.00 0.84 0.43 46 1011.6
20260505202024 22 172 3.2 17.7 0.00 0.84 0.43 47 1011.6
20260505201547 23 289 6.4 17.7 0.00 0.84 0.43 46 1011.7
20260505201030 23 351 4.8 14.5 0.00 0.84 0.43 46 1011.6
20260505200528 23 295 4.8 16.1 0.00 0.84 0.43 47 1011.7
20260505200044 23 49 4.8 16.1 0.00 0.84 0.43 49 1011.8
20260505195528 23 342 6.4 16.1 0.00 0.84 0.43 47 1011.8
20260505195027 23 304 4.8 16.1 0.00 0.84 0.43 48 1011.7
20260505194546 23 326 1.6 8.0 0.00 0.84 0.43 48 1011.7
20260505194028 23 30 3.2 11.3 0.00 0.84 0.43 51 1011.8
20260505193527 22 240 1.6 16.1 0.00 0.84 0.43 51 1012.0
20260505193040 22 283 3.2 20.9 0.00 0.84 0.43 52 1012.0
20260505192528 22 298 4.8 20.9 0.00 0.84 0.43 52 1012.0
20260505192025 22 281 3.2 9.7 0.00 0.84 0.43 53 1012.1
20260505191550 22 221 1.6 11.3 0.00 0.84 0.43 54 1012.1
20260505191025 22 210 4.8 11.3 0.00 0.84 0.43 54 1012.2
20260505190527 21 294 3.2 11.3 0.00 0.84 0.43 55 1012.3
20260505190045 21 313 3.2 11.3 0.00 0.84 0.43 55 1012.2
20260505185525 21 0 3.2 12.9 0.00 0.84 0.43 55 1012.2
20260505185025 21 249 1.6 14.5 0.00 0.84 0.43 57 1012.3
20260505184543 21 223 4.8 14.5 0.00 0.84 0.43 56 1012.4
20260505184027 21 301 3.2 11.3 0.00 0.84 0.43 57 1012.3
20260505183526 21 271 3.2 11.3 0.00 0.84 0.43 56 1012.5
20260505183042 21 293 3.2 16.1 0.00 0.84 0.43 56 1012.6
20260505182524 21 337 4.8 16.1 0.00 0.84 0.43 57 1012.6
20260505182026 21 287 4.8 16.1 0.00 0.84 0.43 56 1012.7
20260505181541 21 0 1.6 11.3 0.00 0.84 0.43 58 1012.7
20260505181027 21 285 3.2 11.3 0.00 0.84 0.43 57 1012.7
20260505180528 21 285 1.6 8.0 0.00 0.84 0.43 57 1012.8
20260505180053 21 238 3.2 8.0 0.00 0.84 0.43 57 1012.8
20260505175525 21 18 1.6 8.0 0.00 0.84 0.43 60 1012.8
20260505175026 21 264 3.2 9.7 0.00 0.84 0.43 58 1012.9
20260505174552 20 284 3.2 9.7 0.00 0.84 0.43 60 1013.0
20260505174027 20 319 1.6 8.0 0.00 0.84 0.43 60 1013.0
20260505173529 20 240 1.6 8.0 0.00 0.84 0.43 60 1013.1
20260505173046 20 280 1.6 9.7 0.00 0.84 0.43 60 1013.2
20260505172526 20 290 3.2 9.7 0.00 0.84 0.43 61 1013.2
20260505172028 20 281 3.2 9.7 0.00 0.84 0.43 62 1013.3
20260505171547 20 219 1.6 8.0 0.00 0.84 0.43 62 1013.1
20260505171029 20 242 3.2 6.4 0.00 0.84 0.43 62 1013.1
20260505170526 20 0 1.6 9.7 0.00 0.84 0.43 62 1013.0
20260505170039 19 39 1.6 9.7 0.00 0.84 0.43 63 1013.1
20260505165528 19 247 1.6 8.0 0.00 0.84 0.43 63 1013.1
20260505165025 19 217 0.0 8.0 0.00 0.84 0.43 64 1013.0
20260505164540 18 260 0.0 8.0 0.00 0.84 0.43 63 1013.1
20260505164031 18 290 1.6 8.0 0.00 0.84 0.43 64 1013.2
20260505163529 18 156 1.6 8.0 0.00 0.84 0.43 64 1013.2
20260505163044 18 278 3.2 8.0 0.00 0.84 0.43 63 1013.2
20260505162526 18 238 0.0 6.4 0.00 0.84 0.43 66 1013.1
20260505162025 18 219 1.6 6.4 0.00 0.84 0.43 65 1013.0
20260505161550 18 235 0.0 3.2 0.00 0.84 0.43 70 1013.1
20260505161025 17 273 0.0 3.2 0.00 0.84 0.43 69 1013.1
20260505160527 17 0 0.0 3.2 0.00 0.84 0.43 69 1013.3
20260505153039 17 0 0.0 3.2 0.00 0.84 0.43 72 1013.1
20260505152525 17 219 0.0 1.6 0.00 0.84 0.43 77 1013.0
20260505152025 17 0 0.0 3.2 0.00 0.84 0.43 80 1013.0
20260505151546 17 0 0.0 3.2 0.00 0.84 0.43 80 1013.1
20260505151025 16 217 0.0 1.6 0.00 0.84 0.43 80 1013.1
20260505150525 16 0 0.0 0.0 0.00 0.84 0.43 82 1013.0
20260505140525 15 0 0.0 1.6 0.00 0.84 0.43 88 1012.8
20260505125027 15 0 0.0 3.2 0.00 0.84 0.43 90 1012.1
20260505124545 15 126 0.0 1.6 0.00 0.84 0.43 90 1011.9
20260505124026 15 0 0.0 1.6 0.00 0.84 0.43 90 1011.9
20260505123524 15 0 0.0 3.2 0.00 0.84 0.43 90 1011.8
20260505123059 15 0 0.0 3.2 0.00 0.84 0.43 90 1011.7
20260505122525 15 0 0.0 3.2 0.00 0.84 0.43 90 1011.6
20260505122025 15 0 0.0 1.6 0.00 0.84 0.43 90 1011.5
20260505121542 15 0 0.0 0.0 0.03 0.84 0.43 90 1011.8
20260505121025 15 0 0.0 1.6 0.03 0.84 0.43 90 1011.9
20260505120524 15 0 0.0 1.6 0.03 0.84 0.43 90 1011.7
20260505120042 15 0 0.0 1.6 0.03 0.84 0.43 90 1011.7
20260505115525 15 0 0.0 1.6 0.03 0.84 0.43 90 1011.9
20260505115025 15 0 0.0 1.6 0.03 0.84 0.43 90 1011.8
20260505114542 15 0 0.0 1.6 0.05 0.84 0.43 90 1011.6
20260505114028 15 131 0.0 1.6 0.05 0.84 0.43 90 1011.7
20260505113526 15 131 0.0 3.2 0.05 0.84 0.43 90 1011.6
20260505113049 15 139 0.0 3.2 0.05 0.84 0.43 90 1011.4
20260505112525 15 0 0.0 3.2 0.05 0.84 0.43 90 1011.6
20260505112025 15 207 0.0 1.6 0.05 0.84 0.43 90 1011.9
20260505111543 15 228 0.0 6.4 0.05 0.81 0.41 90 1012.0
20260505111026 15 174 0.0 6.4 0.05 0.81 0.41 90 1011.7
20260505110528 15 195 0.0 4.8 0.05 0.81 0.41 90 1011.8
20260505102026 15 123 4.8 11.3 0.03 0.79 0.38 89 1011.9
20260505101600 15 89 3.2 8.0 0.00 0.76 0.36 89 1012.2
20260505101025 15 117 3.2 11.3 0.00 0.76 0.36 88 1012.5
20260505100525 15 112 3.2 11.3 0.00 0.76 0.36 88 1012.9
20260505100100 15 220 1.6 9.7 0.00 0.76 0.36 88 1013.1
20260505095527 15 141 3.2 14.5 0.03 0.76 0.36 88 1012.9
20260505095024 15 216 1.6 14.5 0.03 0.76 0.36 88 1012.8
20260505094541 15 123 1.6 14.5 0.03 0.76 0.36 88 1012.9
20260505094026 15 159 4.8 14.5 0.03 0.76 0.36 88 1012.5
20260505093527 15 155 3.2 14.5 0.05 0.76 0.36 88 1012.5
20260505093041 15 221 4.8 14.5 0.05 0.76 0.36 88 1012.5
20260505092527 15 91 4.8 11.3 0.05 0.76 0.36 89 1012.8
20260505092027 15 101 3.2 12.9 0.08 0.76 0.36 89 1012.8
20260505091541 15 198 3.2 12.9 0.08 0.76 0.36 89 1012.9
20260505091027 15 185 1.6 9.7 0.10 0.76 0.36 89 1013.0
20260505090526 15 208 3.2 9.7 0.10 0.76 0.36 89 1013.1
20260505090040 15 174 3.2 11.3 0.13 0.76 0.36 89 1012.9
20260505085526 15 160 3.2 11.3 0.13 0.74 0.33 89 1012.8
20260505085026 15 116 1.6 11.3 0.15 0.74 0.33 89 1013.0
20260505084545 15 125 1.6 11.3 0.15 0.74 0.33 90 1013.1
20260505084024 15 107 3.2 12.9 0.18 0.74 0.33 89 1013.2
20260505083526 15 115 4.8 12.9 0.18 0.71 0.30 90 1013.4
20260505083043 15 195 3.2 16.1 0.18 0.71 0.30 90 1013.5
20260505082525 15 354 4.8 16.1 0.20 0.71 0.30 90 1013.9
20260505082025 15 124 4.8 16.1 0.20 0.69 0.28 90 1013.9
20260505081553 15 236 3.2 9.7 0.23 0.69 0.28 89 1014.1
20260505081025 15 94 3.2 9.7 0.23 0.66 0.25 89 1014.1
20260505080526 15 108 3.2 9.7 0.23 0.66 0.25 89 1014.1
20260505080051 15 90 3.2 9.7 0.23 0.64 0.23 90 1014.5
20260505075526 15 118 3.2 11.3 0.20 0.61 0.20 89 1014.7
20260505075026 15 183 1.6 11.3 0.18 0.58 0.18 89 1014.8
20260505074541 15 117 3.2 11.3 0.20 0.58 0.18 89 1015.0
20260505074026 15 79 1.6 6.4 0.18 0.56 0.15 89 1014.9
20260505073526 15 0 0.0 6.4 0.18 0.53 0.13 90 1015.1
20260505073040 15 122 1.6 6.4 0.15 0.51 0.10 89 1015.2
20260505072525 15 0 0.0 6.4 0.18 0.51 0.10 89 1014.9
20260505072026 15 127 0.0 3.2 0.15 0.48 0.08 89 1015.2
20260505071542 15 0 0.0 3.2 0.15 0.46 0.05 89 1015.2
20260505071025 15 126 0.0 1.6 0.13 0.43 0.03 89 1015.4
20260505070526 15 0 0.0 1.6 0.13 0.43 0.03 89 1015.1
20260505070045 15 0 0.0 0.0 0.10 0.41 0.00 89 1015.0
20260505065526 15 0 0.0 0.0 0.10 0.41 0.41 89 1015.0
20260505065024 15 0 0.0 0.0 0.10 0.41 0.41 89 1015.1
20260505064541 15 0 0.0 0.0 0.08 0.38 0.38 89 1015.0
20260505064027 15 0 0.0 0.0 0.10 0.38 0.38 89 1015.1
20260505063530 15 0 0.0 0.0 0.08 0.36 0.36 89 1015.0
20260505063048 15 0 0.0 0.0 0.08 0.36 0.36 89 1014.9
20260505062528 15 0 0.0 0.0 0.05 0.33 0.33 88 1014.9
20260505062027 15 0 0.0 0.0 0.08 0.33 0.33 88 1015.0
20260505061546 15 0 0.0 0.0 0.05 0.30 0.30 88 1015.1
20260505061028 15 0 0.0 0.0 0.05 0.30 0.30 88 1015.2
20260505060528 15 0 0.0 0.0 0.05 0.30 0.30 87 1015.2
20260505060046 15 0 0.0 0.0 0.05 0.30 0.30 87 1015.3
20260505055528 15 0 0.0 0.0 0.05 0.30 0.30 87 1015.3
20260505055028 15 0 0.0 0.0 0.05 0.30 0.30 86 1015.1
20260505054547 15 0 0.0 0.0 0.05 0.30 0.30 86 1015.0
20260505054027 15 0 0.0 0.0 0.03 0.28 0.28 85 1015.0
20260505053528 15 0 0.0 0.0 0.03 0.28 0.28 85 1015.1
20260505053046 15 0 0.0 4.8 0.05 0.28 0.28 85 1015.1
20260505052530 15 0 0.0 4.8 0.03 0.25 0.25 85 1015.0
20260505052030 15 0 0.0 4.8 0.03 0.25 0.25 84 1014.9
20260505051542 15 150 1.6 4.8 0.05 0.25 0.25 84 1014.8
20260505051027 15 104 1.6 4.8 0.05 0.25 0.25 84 1014.7
20260505050527 15 139 0.0 6.4 0.08 0.25 0.25 84 1014.8